Location: Unspecified
(0.0000°N, 0.0000°E)
Time: 01:23:56
(UTC+00:00)

ISS - Pass Details

Date: 19 October 2017
Orbit: 401 x 408 km, 51.6° (Epoch: 21 October)

Event Time Altitude Azimuth Distance (km) Brightness Sun altitude
Rises 19:25:13 0° 316° (NW) 2,310 0.5 -24.7°
Reaches altitude 10° 19:27:19 10° 310° (NW) 1,455 -0.6 -25.2°
Enters shadow 19:28:45 23° 299° (WNW) 916 -1.6 -25.5°
